Regional Weather Roundup
Issued by NWS Newport/Morehead, NC

Current Version | Previous Version | Text Only | Print | Product List | Glossary On
Versions: 1 2 3 4 5 6 7 8 9 10 11 12 13 14 15 16 17 18 19 20 21 22 23 24 25 26 27 28 29 30 31 32 33 34 35 36 37 38 39 40 41 42 43 44 45 46 47 48 49 50
523
ASUS42 KMHX 202110
RWRMHX
WEATHER ROUNDUP FOR EASTERN NORTH CAROLINA
NATIONAL WEATHER SERVICE NEWPORT/MOREHEAD CITY NC
400 PM EST SAT JAN 20 2018

NOTE: "FAIR" INDICATES FEW OR NO CLOUDS BELOW 12,000 FEET
WITH NO SIGNIFICANT WEATHER AND/OR OBSTRUCTIONS TO VISIBILITY

NCZ015>017-031-032-045>047-102-103-202200-
NORTH COAST

CITY           SKY/WX    TMP DP  RH WIND       PRES   REMARKS
EDENTON        FAIR      60  26  27 SW12      30.08S
ELIZABETH CITY FAIR      58  43  57 SW14      30.05F
KITTY HAWK     FAIR      56  24  30 SW6       30.06S
MANTEO         FAIR      54  29  38 W10       30.08S

$$

NCZ045>047-081-094-103-104-202200-
CENTRAL COAST

CITY           SKY/WX    TMP DP  RH WIND       PRES   REMARKS
FRISCO         FAIR      57  41  55 SW13G23   30.12R

$$

NCZ095-097-098-100-101-202200-
SOUTHERN COAST

CITY           SKY/WX    TMP DP  RH WIND       PRES   REMARKS
BEAUFORT       FAIR      53  35  50 SW16      30.15R
CEDAR ISLAND   NOT AVBL
JACKSONVILLE   FAIR      65  21  18 W10       30.12S
PINEY ISLAND   NOT AVBL
WILMINGTON     FAIR      59  23  25 SW17      30.16R


$$

NCZ011>013-027>030-043-044-078>080-089-090>093-098-202200-
COASTAL PLAIN

CITY           SKY/WX    TMP DP  RH WIND       PRES   REMARKS
AHOSKIE        FAIR      57  31  36 SW3       30.08R
CLINTON        FAIR      61  28  28 W5        30.15R
ELIZABETHTOWN  NOT AVBL
GOLDSBORO      FAIR      59  22  24 SW12      30.11S
GREENVILLE     FAIR      59  23  25 W10G16    30.13R
HAVELOCK       NOT AVBL
KENANSVILLE    FAIR      63  28  27 W6        30.14R
KINSTON        FAIR      61  21  21 SW6       30.14R
NEW BERN       FAIR      62  28  27 W9        30.13R
RICHLANDS      FAIR      63  30  28 W8        30.13S
ROCKY MOUNT    NOT AVBL
WASHINGTON     FAIR      60  22  23 W10G16    30.11S
WHITEVILLE     FAIR      64  26  23 SW8G16    30.15R

$$

AMZ130-135-150-152-154-156-158-170-250-252-270-ANZ085-086-088-633-658-670-202200-
MARINE OBSERVATIONS

STATION/POSITION TIME  TEMP    WIND        PRES    WAVE   SWELL
                       AIR SEA DIR/SP/G            HT/PER HT/PER
                 (UTC) (F)     (DEG/KT/KT) (MB)    (FT/S) (FT/S)
CHESAPEAKE LIGHT NOT AVBL
64 E VA BEACH    NOT AVBL
DUCK             NOT AVBL
2 E DUCK         NOT AVBL
OREGON INLET     NOT AVBL
13E OREGON INLT  NOT AVBL
HATTERAS CG      NOT AVBL
DIAMOND BUOY     NOT AVBL
CAPE LOOKOUT     NOT AVBL
BEAUFORT LAB     NOT AVBL
30 SE NEW RVR IN NOT AVBL
30 SE NEW RVR IN NOT AVBL
27 SE WRIGHTSVLE NOT AVBL
5 SE WRIGHTSVLE  NOT AVBL
225 S CAPE HAT   NOT AVBL
41 SE CHARLESTON NOT AVBL

$$




USA.gov is the U.S. government's official web portal to all federal, state and local government web resources and services.